#timestamp,LO_Frequency,Hit,StdDev 
1591081215.8,286046997.1,N
1591081235.6,286046999.0,N
1591081255.5,286046999.1,N
1591081275.3,286046999.3,N
1591081295.1,286046997.3,N
1591081315.9,286046999.5,N
1591081335.7,286046998.9,N
1591081355.5,286047001.0,N
1591081375.4,286047001.0,N
1591081395.2,286047001.1,N
1591081415.1,286046998.2,N
1591081416.0,286046998.2,N
1591081435.8,286046997.5,N
1591081455.6,286046997.9,N
1591081475.5,286046995.4,N
1591081495.3,286046996.2,N
1591081515.2,286046994.6,Y
1591081535.9,286046997.7,P
1591081555.7,286046998.2,P
1591081575.6,286047001.0,N
1591081595.4,286046999.4,N
1591081615.2,286046998.4,N
1591081635.1,286046999.8,N
1591081636.0,286046999.8,N
1591081655.8,286047000.0,N
1591081675.6,286046998.6,N
1591081695.5,286046999.4,N
1591081715.3,286046999.2,N
1591081735.2,286046997.3,Y
1591081755.0,286046998.9,P
1591081755.9,286046998.9,P
1591081775.7,286046998.5,P
1591081795.6,286047000.2,N
1591081815.4,286047004.1,Y
1591081835.3,286047005.8,P
1591081855.1,286047007.3,N
1591081856.0,286047007.3,N
1591081875.8,286047006.8,N
1591081895.7,286047007.4,N
1591081915.5,286047005.6,N
1591081935.3,286047001.4,N
1591081955.2,286046998.1,N
1591081975.0,286046996.6,N
1591081975.9,286046996.6,N
1591081995.8,286046997.7,N
1591082015.6,286046996.9,N
1591082035.4,286046996.8,N
1591082055.3,286046997.9,N
1591082075.1,286046999.6,N
1591082095.8,286047000.3,N
1591082115.7,286047001.3,N
1591082135.5,286047001.4,N
1591082155.4,286047000.1,N
1591082175.2,286046998.2,N
1591082195.0,286046998.8,N
1591082195.9,286046998.8,N
1591082215.8,286046999.0,N
1591082235.6,286046999.2,N
1591082255.4,286046998.3,N
1591082275.3,286046999.2,N
1591082295.1,286046997.0,N
1591082315.9,286046999.2,N
1591082335.7,286046999.5,N
1591082355.5,286046999.4,N
1591082375.4,286046996.6,N
1591082395.2,286046999.6,N
1591082415.0,286046998.0,N
1591082415.9,286046998.0,N
1591082435.8,286046999.6,N
1591082455.6,286046998.9,N
1591082475.5,286046999.6,N
1591082495.3,286046996.7,N
1591082515.1,286046995.2,Y
1591082535.9,286046994.9,P
1591082555.7,286046997.5,N
1591082575.5,286046998.3,N
1591082595.4,286046996.5,N
1591082615.2,286046999.2,N
1591082635.0,286047000.6,N
1591082636.0,286047000.6,N
1591082655.8,286047001.7,N
1591082675.6,286047004.3,N
1591082695.5,286047002.7,N
1591082715.3,286047003.0,N
1591082735.1,286047005.7,N
1591082755.9,286047003.4,N
1591082775.7,286047004.5,N
1591082795.5,286047004.6,N
1591082815.4,286047004.8,N
1591082835.2,286047007.1,N
1591082855.1,286047004.5,N
1591082856.0,286047004.5,N
1591082875.8,286047002.9,N
1591082895.6,286047004.9,N
1591082915.5,286047006.0,N
1591082935.3,286047005.1,N
1591082955.1,286047007.2,N
1591082975.9,286047007.5,N
1591082995.7,286047005.9,N
1591083015.6,286047004.4,N
1591083035.4,286047002.6,N
1591083055.2,286047001.3,N
1591083075.1,286047003.4,N
1591083076.0,286047003.4,N
1591083095.8,286047005.1,N
1591083115.6,286047004.6,N
1591083135.5,286047008.2,Y
1591083155.3,286047005.8,P
1591083175.1,286047002.9,N
1591083195.9,286047003.4,N
1591083215.7,286047003.3,N
1591083235.6,286047005.7,Y
1591083255.4,286046999.8,P
1591083275.2,286046998.2,N
1591083295.1,286046996.5,N
1591083296.0,286046996.5,N
1591083315.8,286046999.0,N
1591083335.6,286046998.6,N
1591083355.5,286046998.7,N
1591083375.3,286046996.5,N
1591083395.2,286046996.6,N
1591083415.9,286046997.7,N
1591083435.7,286046997.5,N
1591083455.6,286046997.7,N
1591083475.4,286046997.3,N
1591083495.2,286046998.0,N
1591083515.1,286046993.3,Y
1591083516.0,286046993.3,P
1591083535.8,286046995.0,N
1591083555.7,286046999.5,N
1591083575.5,286046996.8,N
1591083595.3,286046997.1,N
1591083615.2,286046997.2,N
1591083635.0,286046997.7,N
1591083635.9,286046997.7,N
1591083655.7,286046995.1,N
1591083675.6,286046995.4,N
1591083695.4,286046998.0,N
1591083715.3,286046995.3,N
1591083735.1,286046993.9,Y
1591083736.0,286046993.9,P
1591083755.8,286046996.7,N
1591083775.7,286046996.9,N
1591083795.5,286046996.7,N
1591083815.3,286046997.3,N
1591083835.2,286046997.4,N
1591083855.0,286046996.5,Y
1591083855.9,286046996.5,P
1591083875.8,286046999.8,P
1591083895.6,286047002.1,N
1591083915.4,286047001.6,N
1591083935.3,286047004.1,N
1591083955.1,286047003.3,N
1591083975.8,286047005.7,N
1591083995.7,286047003.2,N
1591084015.5,286047005.6,N
1591084035.4,286047005.2,N
1591084055.2,286047005.8,N
1591084075.0,286047005.8,N
1591084075.9,286047005.8,N
1591084095.8,286047005.8,N
1591084115.6,286047005.6,N
1591084135.4,286047011.9,Y
1591084155.3,286047000.5,P
1591084175.1,286047000.5,N
1591084195.9,286046999.9,N
1591084215.7,286047004.3,Y
1591084235.5,286047002.4,P
1591084255.4,286047000.2,N
1591084275.2,286046999.0,N
1591084295.0,286046999.3,N
1591084295.9,286046999.3,N
1591084315.8,286046999.8,N
1591084335.6,286047000.8,N
1591084355.5,286047000.4,N
1591084375.3,286046998.8,N
1591084395.1,286046998.1,N
1591084415.9,286047000.7,N
1591084435.7,286046998.3,N
1591084455.5,286046999.1,N
1591084475.4,286046996.5,Y
1591084495.2,286047000.2,P
1591084515.1,286047000.5,N
1591084516.0,286047000.5,N
1591084535.8,286047001.2,Y
1591084555.6,286047000.2,P
1591084575.5,286047002.0,P
1591084595.3,286047003.7,P
1591084615.2,286047002.3,N
1591084635.9,286047000.0,N
1591084655.7,286047001.7,N
1591084675.6,286047005.4,Y
1591084695.4,286047000.0,P
1591084715.2,286047000.2,N
1591084735.1,286047002.0,P
1591084736.0,286047002.0,N
1591084755.8,286047001.6,N
1591084775.7,286047004.3,Y
1591084795.5,286046999.6,P
